Historyczne dane pomiarowe

Dodano dane terminowe – wersja testowa.

Dane z okresu 1951-2019

Wersja bazy: 1.34 [2019-03-16, lista zmian], aktualizacja planowana na 2019-04-15

Dane meteo z obszaru Polski uzyskane na podstawie danych udostępnionych przez Instytut Meteorologii i Gospodarki Wodnej – Państwowy Instytut Badawczy.

 

Wybierz Datę:    

       

TemperaturaWilgotnośćWiatrCiśnienieOpadyŚniegCzas trwania zjawisk
 Stacja t tx tn tng RH VA  wxwx mslp ppp RRR   cm mm wxwxwxwxwxwxwx
2019-07-01 27.3 35.0 19.9 14.6 47.0- 5.0 5.7---- 2.9------------
2019-06-30 24.8 33.8 14.8 10.2 49.3- 0.3 3.0---- 0.0------------
2019-06-29 19.7 26.2 11.3 8.7 50.0- 5.0 5.0---- 0.0------------
2019-06-28 18.8 23.4 13.8 12.2 43.3- 2.7 6.7---- 0.0------------
2019-06-27 23.9 30.0 21.1 19.9 60.3- 5.7 5.7---- 0.0------------
2019-06-26 26.6 32.8 19.2 15.8 59.5- 2.7 3.0---- 1.6------------
2019-06-25 24.2 30.5 16.0 12.3 54.3- 2.3 2.7---- 0.0------------
2019-06-24 22.7 27.9 15.5 12.5 52.8- 1.0 3.0---- 0.0------------
2019-06-23 20.9 26.4 14.9 13.3 55.0- 2.7 4.3---- 0.0------------
2019-06-22 21.0 25.2 17.6 17.3 70.5- 6.3 6.3---- 0.0------------
2019-06-21 21.2 27.4 18.1 17.4 90.0- 7.7 2.7---- 16.0------------
2019-06-20 23.5 28.9 17.2 15.5 71.3- 7.0 2.0---- 0.3------------
2019-06-19 21.4 28.4 17.2 14.0 81.8- 7.3 3.0---- 13.5------------
2019-06-18 21.6 28.2 15.3 11.7 63.8- 6.3 3.0---- 5.0------------
2019-06-17 20.4 24.5 16.7 16.0 67.8- 7.7 4.0---- 0.0------------
2019-06-16 25.1 30.7 20.9 18.6 64.5- 4.0 6.7---- 0.0------------
2019-06-15 27.1 34.2 19.9 16.7 76.8- 2.0 4.0---- 0.0------------
2019-06-14 25.8 30.8 20.3 18.2 54.8- 5.3 5.0---- 0.0------------
2019-06-13 26.9 33.4 19.7 14.5 54.5- 0.7 4.3---- 0.3------------
2019-06-12 26.3 33.1 18.7 14.0 55.8- 0.7 4.0---- 0.0------------
2019-06-11 26.1 32.7 18.4 13.7 61.0- 2.7 3.7---- 0.0------------
2019-06-10 23.1 30.1 14.5 10.8 60.0- 4.0 6.3---- 0.0------------
2019-06-09 21.4 26.0 16.2 13.8 57.3- 0.7 2.3---- 0.0------------
2019-06-08 22.5 28.9 16.2 12.6 68.5- 4.0 3.3---- 0.0------------
2019-06-07 21.4 28.3 14.8 10.7 66.0- 2.3 3.7---- 0.0------------
2019-06-06 21.8 28.1 16.1 12.0 68.3- 4.7 3.3---- 0.0------------
2019-06-05 22.1 28.0 15.8 12.5 63.0- 3.7 3.3---- 0.0------------
2019-06-04 23.0 29.4 15.3 11.2 59.0- 3.0 4.0---- 0.0------------
2019-06-03 20.8 26.6 13.1 8.5 52.8- 0.0 3.7---- 0.0------------
2019-06-02 19.3 26.4 12.4 9.0 80.5- 3.3 2.0---- 0.0------------
2019-06-01 18.8 24.6 11.3 8.1 82.5- 3.3 4.0---- 0.0------------
2019-05-31 17.2 22.3 11.7 9.4 56.0- 2.3 1.7---- 0.0------------
2019-05-30 13.9 19.1 8.8 7.5 67.8- 7.0 4.0---- 0.0------------
2019-05-29 14.2 16.7 11.8 11.0 92.0- 8.0 4.0---- 1.1------------
2019-05-28 18.9 25.5 16.2 13.0 89.5- 7.7 5.3---- 11.1------------
2019-05-27 18.9 25.8 11.2 6.7 77.5- 4.7 3.3---- 5.5------------
2019-05-26 16.6 22.3 10.0 6.6 60.5- 4.3 4.0---- 0.0------------
2019-05-25 18.1 22.9 13.8 11.0 59.0- 4.0 3.3---- 0.0------------
2019-05-24 15.2 19.1 12.2 11.5 86.0- 7.3 3.7---- 0.0------------
2019-05-23 16.5 21.1 12.7 10.5 81.5- 7.0 4.3---- 2.8------------
2019-05-22 15.2 19.1 12.1 10.5 91.5- 7.3 5.7---- 1.8------------
2019-05-21 16.3 21.7 13.6 10.7 84.0- 7.3 5.0---- 4.3------------
2019-05-20 19.1 24.9 15.3 11.9 83.3- 7.3 4.7---- 14.8------------
2019-05-19 18.5 23.2 15.1 13.2 86.3- 5.7 5.0---- 0.6------------
2019-05-18 18.4 24.8 13.4 9.1 73.5- 6.7 3.3---- 1.7------------
2019-05-17 17.7 22.2 13.4 10.2 80.8- 6.0 3.3---- 0.0------------
2019-05-16 14.1 18.4 11.0 10.2 92.8- 8.0 4.3---- 4.5------------
2019-05-15 10.4 12.3 7.4 6.5 97.0- 8.0 3.7---- 10.8------------
2019-05-14 7.1 8.6 5.9 5.0 94.5- 8.0 4.7---- 5.5------------
2019-05-13 10.8 18.5 8.0 6.4 85.3- 8.0 6.7---- 3.5------------
2019-05-12 16.0 23.7 7.8 2.6 73.5- 4.7 3.3---- 0.0------------
2019-05-11 13.1 19.2 6.2 2.0 84.3- 4.7 4.0---- 0.0------------
2019-05-10 12.0 16.0 8.4 6.5 84.0- 7.0 2.0---- 0.2------------
2019-05-09 13.0 19.1 6.8 1.2 59.5- 4.7 6.0---- 0.3------------
2019-05-08 8.4 15.5 0.4 -3.6 57.3- 4.0 3.7---- 0.0------------
2019-05-07 10.3 14.8 6.8 5.0 64.0- 5.7 5.3---- 0.0------------
2019-05-06 8.8 12.3 5.1 3.7 48.8- 8.0 6.7---- 0.0------------
2019-05-05 8.3 11.9 5.9 2.1 69.5- 8.0 5.0---- 0.0------------
2019-05-04 10.4 15.4 5.7 1.7 59.8- 4.0 3.7---- 0.0------------
2019-05-03 10.1 14.1 5.2 0.8 66.8- 7.3 4.7---- 0.0------------
159.1 ms

 

Źródłem pochodzenia danych jest Instytut Meteorologii i Gospodarki Wodnej – Państwowy Instytut Badawczy. Dane Instytutu Meteorologii i Gospodarki Wodnej – Państwowego Instytutu Badawczego zostały przetworzone.

Dane źródłowe można odnaleźć na stronie https://dane.imgw.pl